Погода Игнасино

Погода Игнасино : погода сейчас, прогноз погоды и архив. Всё, что Вы хотите узнать о погоде Игнасино!

Хотите узнать прогноз погоды Игнасино? Тогда Вам сюда: Погода Игнасино

Поиск расширенной информации на нашем сайте:

Другие новости

Новости СМИ2

Главная страница сайта

Новости сайта

03.07.2017

Напоминаем, что на нашем специализированном сайте Метеоцентр.Азия вы можете получить высокодетализированные автоматические прогнозы погоды по пунктам России, СНГ и мира в авиационном формате (включающие направление и скорость ветра, видимость, явления погоды, количество и форму облачности, нижнюю и верхнюю границу облачности).

Рекомендуем: Нижнее белье для полных красивое женское нижнее белье.

Погода Игнасино - сегодня

Время (UTC), дата Ветер
(°,м/с) 
Видим.   Явления Облачность Т
(°С)
Тd
(°С)
f(%) Тe
(°С)
Pmin
(гПа)
dP
(гПа)
Po
(мм)
O2
(г/м3)
Тmin Tmax R s Состояние
почвы
15 19.11.17 310 (СЗ) 20000 м    ясно 
-21.8 -27.9 58 -28  1025.3  -0.5  739  325           
18 19.11.17 310 (СЗ) 20000 м    ясно 
-23.3 -28.4 63 -29  1025.3  -0.3  739  327           
21 19.11.17 тихо ()   20000 м    ясно 
-26 -29.7 71 -26  1024.5  -1.2  738  330           
00 20.11.17 090 (В) 20000 м    3/0 верхняя 
[Ci fib]
-30 -33.3 73 -31  1024  -1.1  737  336  -30.8      равномерный
сухой снег
100% 
03 20.11.17 160 (Ю) 20000 м    10/0 верхняя 
[Cs]
-19.4 -25.4 59 -20  1018.7  -3.4  734  320           
06 20.11.17 320 (СЗ) 20000 м    8/0 верхняя 
[Cc]
-15.2 -23.3 50 -19  1014.6  -3.3  732  314           
09 20.11.17 360 (С) 20000 м    1/0 верхняя 
[Ci sp]
-19.7 -22.7 77 -22  1013.8  -1.5  731  319           
12 20.11.17 020 (С) 20000 м    ясно 
-24.5 -27 80 -25  1014.1  -0.5  731  325    -15       
15 20.11.17 010 (С) 20000 м    ясно 
-26.4 -29.2 77 -30  1014  -0.3  730  328           
18 20.11.17 010 (С) 20000 м    ясно 
-27.3 -30.2 76 -31  1014.2  730  329           
21 20.11.17 020 (С) 20000 м    ясно 
-28 -31.1 75 -29  1013.9  -0.4  730  330           
00 21.11.17 010 (С) 20000 м    9/0 верхняя 
[Cc]
-28 -31.1 75 -29  1014.4  0.5  730  330  -29.1      равномерный
сухой снег
100% 
03 21.11.17 160 (Ю) 20000 м    9/0 средняя, верхняя 
[Ac trans|Cc]
-21.7 -24.7 77 -22  1012.9  -0.4  730  321           
06 21.11.17 150 (ЮВ) 20000 м    ясно 
-14.1 -18.1 72 -18  1011.1  -0.6  730  311           
09 21.11.17 020 (С) 20000 м    ясно 
-20.5 -22.5 84 -21  1014.2  731  320           
12 21.11.17 030 (СВ) 20000 м    ясно 
-24.1 -26.5 80 -25  1016.4  1.5  732  325    -13.6       
15 21.11.17 010 (С) 20000 м    ясно 
-26.8 -29.6 77 -30  1017.6  0.8  733  329           
18 21.11.17 360 (С) 20000 м    10/0 средняя, верхняя 
[Ac lent|Ci sp]
-24.8 -27.5 78 -25  1017.6  0.3  733  327           
21 21.11.17 010 (С) 4000 м  слаб. снег  10/0 верхняя 
[Cs]
-26.1 -28.9 77 -29  1017.7  -0.1  733  328           
00 22.11.17 020 (С) 23000 м  слаб. снег  10/0 верхняя 
[Cs]
-24.4 -27.1 78 -25  1017.4  733  326  -27.5    0.3  равномерный
сухой снег
100% 
03 22.11.17 тихо ()   20000 м  {снег}  ясно 
-18.8 -22.3 74 -19  1016  -0.6  733  319           
06 22.11.17 150 (ЮВ) 20000 м  {снег}  8/0 средняя, верхняя 
[Ac lent|Cc]
-15.5 -19.2 73 -16  1015.4  733  314           
09 22.11.17 360 (С) 20000 м    8/0 средняя 
[Ac lent]
-17.3 -19.4 84 -17  1016.6  0.9  733  317           
12 22.11.17 020 (С) 20000 м  {снег}  10/0 средняя, верхняя 
[Ac lent|Cs]
-19.8 -21.8 84 -20  1017.9  0.9  734  320    -15.4  0.2     
15 22.11.17 180 (Ю) 20000 м    ясно 
-22.2 -24.4 82 -23  1019  0.6  734  324           
Время (UTC), дата Ветер
(°,м/с) 
Видим.   Явления Облачность Т
(°С)
Тd
(°С)
f(%) Тe
(°С)
Pmin
(гПа)
dP
(гПа)
Po
(мм)
O2
(г/м3)
Тmin Tmax R s Состояние
почвы

Для получения пояснительной информации подведите курсор к названию столбца.

ПОГОДА Игнасино - архив

Всё, что Вы хотите узнать о погоде Игнасино - удобно и подробно!

Выберите нужную дату (начиная с 1 января 2015* года) и нажмите кнопку "Найти".
Будут отображены архивные сводки погоды по пункту Игнасино, начиная с указанной даты.


Отображать данные в формате CSV (для использования в таблицах Excel)


Внимание! Наш архив погоды предназначен исключительно для личного некоммерческого использования в познавательных целях. Если Вам необходимы официальные справки о состоянии погоды (для производственных, юридических, коммерческих и т.п. целей), обращайтесь в органы Росгидромета.

*Примечание: данная дата относится к архиву по метеостанциям СССР (Россия, СНГ, Балтия).
Архив по метеостанциям Зарубежной Европы и Азии (кроме Китая) хранится 10 дней, по другим регионам земного шара (Китай, Африка, Америка, Австралия, Океания) - 1 день.

Игнасино - район местоположения метеостанции


Название, широта, долгота, высота метеостанции:
Игнасино 53.5°ш. 122.4°д. 295 м над ур. моря [Российская Федерация]

Дополнительная информация

В oтличие oт бoльшинства пoгoдных сайтoв мы публикуем пoдрoбную метеoинфoрмацию в детальнoм прoфессиoнальнoм фoрмате.

Характеристики температуры и влажнoсти вoздуха измеряются на высoте 2 м в тени вдали oт зданий и деревьев.
Скoрoсть ветра измеряется на высoте 10 м (на урoвне рoста челoвека скoрoсть ветра ниже в 1.5-2 раза). Если метеoстанция нахoдится в гoрoде или в лесу, тo скoрoсть ветра занижена на 2-4 м/с пo сравнению с oткрытым местoм. Скoрoсть ветра над акватoриями крупных рек и oзёр, а также на вершинах хoлмoв на 2-5 м/с выше, чем в oбычных услoвиях.
Атмoсфернoе давление в разных тoчках местнoсти мoжет значительнo oтличаться oт давления на метеoстанции, в зависимoсти oт услoвий рельефа (при пoдъёме на 10 м давление пoнижается примернo на 1 мм рт.ст.).